Flag for Germany Weather past 2 weeks in Lünen, North Rhine-Westphalia, Germany

Now
62 °F

Passing clouds.


Feels Like: 62 °F
Forecast: 54 / 74 °F
Wind: 2 mph from East

Location: Muenster / Osnabrueck

Current Time: Sep 17, 2014 at 4:27:25 AM

Latest Report: Sep 17, 2014 at 4:00 AM


Visibility: 9 mi

Pressure: 29.96 "Hg

Humidity: 85%

Dew point: 57 °F

Location of LünenLocation

Historic Weather in Lünen — Graph

°F

Lünen temperature yesterday

Maximum temperature yesterday: 76 °F (at 4:00 PM)
Minimum temperature yesterday: 58 °F (at 7:00 AM)
Average temperature yesterday: 67 °F

Past Weeks' High & Low Weather Summary

 TemperatureHumidityPressure
High77 °F (Sep 5, 4:00 PM)100% (Sep 3, 3:00 AM)30.28 "Hg (Sep 3, 3:00 AM)
Low47 °F (Sep 12, 3:00 AM)50% (Sep 8, 5:00 PM)29.87 "Hg (Sep 6, 5:00 PM)
Average61 °F84%30.09 "Hg
* Reported Sep 2 3:00 AM — Sep 17 3:00 AM, Lünen, Weather by CustomWeather, © 2014

Note: Actual official high and low records may vary slightly from our data, if they occured in-between our weather recording intervals... More about our weather records

Advertising

Lünen weather history for previous 24 hours

 ConditionsComfort  
Time TempWeatherWind HumidityBarometerVisibility
3:00 AM
Sep 17
62 °FPassing clouds.1 mph86%29.97 "Hg9 mi
2:00 AM63 °FPassing clouds.1 mph86%29.98 "Hg9 mi
1:00 AM60 °FPassing clouds.1 mph93%29.98 "Hg9 mi
12:00 AM60 °FPassing clouds.1 mph89%29.98 "Hg12 mi
11:00 PM
Sep 16
65 °FPassing clouds.1 mph78%29.98 "Hg12 mi
10:00 PM65 °FPassing clouds.1 mph80%29.98 "Hg12 mi
9:00 PM67 °FPassing clouds.1 mph76%29.98 "Hg9 mi
8:00 PM69 °FPassing clouds.1 mph70%29.96 "Hg12 mi
7:00 PM72 °FPassing clouds.2 mph62%29.96 "Hg12 mi
6:00 PM74 °FScattered clouds.3 mph59%29.96 "Hg12 mi
5:00 PM76 °FScattered clouds.3 mph53%29.96 "Hg12 mi
4:00 PM76 °FScattered clouds.3 mph56%29.96 "Hg7 mi
3:00 PM76 °FPartly sunny.3 mph56%29.98 "Hg7 mi
2:00 PM74 °FPartly sunny.2 mph63%29.99 "Hg7 mi
1:00 PM74 °FPartly sunny.2 mph68%30.01 "Hg5 mi
12:00 PM71 °FHaze.2 mph73%30.01 "Hg4 mi
11:00 AM69 °FFog.2 mph82%30.02 "Hg3 mi
10:00 AM67 °FScattered clouds.2 mph83%30.02 "Hg3 mi
9:00 AM62 °FFog.1 mph94%30.02 "Hg2 mi
8:00 AM59 °FFog.1 mph96%30.02 "Hg2 mi
7:00 AM58 °FFog.1 mph99%30.02 "Hg0 mi
6:00 AM59 °FFog.1 mph97%30.02 "Hg1 mi
5:00 AM60 °FFog.1 mph94%30.02 "Hg4 mi
4:00 AM63 °FFog.2 mph91%30.02 "Hg4 mi
Weather by CustomWeather, © 2014

See weather overviewHow to use our weather pages